Location: Gull Harbor
(47.1000°N, 122.9000°W)
Time: 08:39:46
(UTC-07:00)

Tiangong 2 - Visible Passes

Search period start: 27 May 2018 00:00
Search period end: 06 June 2018 00:00
Orbit: 382 x 385 km, 42.8° (Epoch: 27 May)

Date Brightness Start Highest point End Pass type
(mag) Time Alt. Az. Time Alt. Az. Time Alt. Az.
27 May 1.8 22:02:21 10° WSW 22:05:18 35° S 22:07:27 16° ESE visible
27 May 3.7 23:39:17 10° WSW 23:39:38 12° WSW 23:39:38 12° WSW visible
28 May 2.3 22:39:16 10° WSW 22:41:55 25° SSW 22:42:23 24° S visible
29 May 2.1 21:39:23 10° WSW 21:42:13 31° S 21:45:04 10° SE visible
29 May 3.6 23:16:52 10° SW 23:17:18 11° SW 23:17:18 11° SW visible
30 May 2.9 22:16:29 10° WSW 22:18:45 19° SSW 22:20:01 15° S visible
01 Jun 3.4 21:54:00 10° WSW 21:55:32 13° SSW 21:57:05 10° S visible
